SCP
-0 -0 -0 -0 0 0 0 0 0 0 0 0 0 0 0 0 0 0 0 -0 0 -0 -0 -0 -0 -0 -0 -0 -0 -0 -0 -0 -0 0 0 0 0 0 0 0 0 0 0 0 0 -0 -0 -0 -0
-0 -0 -0 0 0 0 0 0 0 0 0 0 0 0 0 0 0 0 0 -0 0 -0 -0 -0 -0 -0 -0 -0 -0 -0 -0 -0 -0 -0 0 0 0 0 0 0 0 0 0 -0 -0 -0 -0 -0 -0
0 -0 0 0 0 0 0 0 0 0 0 0 0 0 0 0 0 0 0 -0 -0 -0 -0 -0 -0 -0 -0 -0 -0 -0 -0 -0 -0 -0 0 0 0 0 0 0 0 -0 0 0 0 0 0 -0 -0
0 0 0 0 0 0 0 0 0 0 0 0 0 0 0 0 0 0 0 -0 -0 -0 -0 -0 -0 -0 -0 -0 -0 -0 0 0 0 0 0 0 0 0 0 0 0 0 0 0 0 0 0 0 -0
0 0 0 0 0 0 0 0 0 0 0 0 0 0 0 0 0 0 0 -0 -0 -0 -0 0 -0 0 0 0 -0 -0 0 0 0 0 0 0 0 0 0 0 0 0 -0 -0 -0 -0 -0 -0 0
0 0 0 0 0 0 0 0 0 0 0 0 0 0 0 0 0 0 0 -0 -0 -0 -0 0 0 0 0 0 0 0 -0 -0 0 0 0 0 0 0 0 0 0 0 0 0 0 -0 -0 -0 -0
0 0 0 0 0 0 0 0 0 0 0 0 0 0 0 0 0 0 0 -0 -0 -0 -0 -0 0 0 0 0 0 -0 0 0 0 0 0 0 0 0 0 0 0 0 0 0 0 0 0 0 0
0 0 0 0 0 0 0 0 0 0 0 0 0 0 0 0 0 0 0 0 0 0 -0 -0 0 0 0 0 0 0 0 0 0 0 0 0 0 0 0 0 0 0 0 0 0 0 0 0 0
0 0 0 0 0 -0 0 0 0 0 0 0 0 0 0 0 0 0 0 0 0 0 0 0 0 0 0 0 0 0 0 0 0 0 0 0 0 0 0 0 0 0 0 0 0 0 0 0 0
0 0 0 0 0 0 0 0 0 0 0 0 0 0 0 0 0 0 0 0 0 0 0 0 0 0 0 0 0 0 0 0 0 0 0 0 0 0 0 0 0 0 0 0 0 0 0 0 0
0 0 0 0 0 0 0 0 0 0 0 0 0 0 0 0 0 0 0 0 0 0 0 0 0 0 0 0 0 0 0 0 0 0 0 0 0 0 0 0 0 0 0 0 0 0 0 0 0
0 0 0 0 0 0 0 0 0 0 0 0 0 0 0 0 0 0 0 0 0 0 0 0 0 0 0 0 0 0 0 0 0 0 0 0 0 0 0 0 0 0 0 0 0 0 0 0 0
0 0 0 0 0 0 0 0 0 0 0 0 0 0 0 0 0 0 0 0 0 0 0 0 0 0 0 0 0 0 0 0 0 0 0 0 0 0 0 0 0 0 0 0 0 0 0 0 0
0 0 0 0 0 0 0 0 0 0 0 0 0 0 0 0 0 0 0 0 0 0 0 0 0 0 0 0 0 0 0 0 0 0 0 0 0 0 0 0 0 0 0 0 0 0 0 0 0
0 0 0 0 0 0 0 -0 0 0 0 0 0 0 0 0 0 0 0 0 0 0 0 0 0 0 0 0 0 0 0 0 0 0 0 0 0 0 0 0 0 0 0 0 0 0 0 0 0
0 0 0 0 0 0 0 -0 -0 0 0 0 -0 -0 0 -0 0 0 0 0 0 0 0 0 0 0 0 0 0 0 0 0 0 0 0 0 0 0 0 0 0 0 0 0 0 0 0 0 0
0 0 0 0 0 0 0 -0 0 0 0 -0 0 0 0 -0 -0 0 0 0 0 0 0 0 0 0 0 0 0 0 0 0 0 0 0 0 0 0 0 0 0 0 0 0 0 0 0 0 0
0 0 0 0 0 0 0 -0 -0 -0 0 0 0 0 0 0 0 0 0 0 0 0 0 0 0 0 0 0 0 0 0 0 0 0 0 0 0 0 0 0 0 0 0 0 0 0 0 0 0
0 0 0 0 0 0 -0 -0 0 0 0 0 0 0 0 0 0 0 0 0 0 0 0 0 0 0 0 0 0 0 0 0 0 0 0 0 0 0 0 0 0 0 0 0 0 0 0 0 0
0 0 0 0 0 0 0 -0 0 0 0 0 0 0 0 0 0 0 0 0 0 0 0 0 0 0 0 0 0 0 0 0 0 0 0 0 0 0 0 0 0 0 0 0 0 0 0 0 0
0 0 0 0 0 0 0 -0 -0 0 0 0 0 0 0 0 0 0 0 0 0 0 0 0 0 0 0 0 0 0 0 0 0 0 0 0 0 0 0 0 0 0 0 0 0 0 0 0 0
0 0 0 0 0 0 0 -0 -0 -0 -0 0 0 0 0 0 0 -0 -0 -0 -0 -0 -0 -0 0 0 0 0 0 0 0 0 0 0 0 0 0 0 0 0 0 0 0 0 0 0 0 0 0
0 0 0 0 0 0 0 0 0 0 0 0 0 0 0 -0 -0 -0 0 0 0 -0 -0 -0 0 0 0 0 0 0 0 0 0 0 0 0 0 0 0 0 0 0 0 0 0 0 0 0 0
0 0 0 0 0 0 0 0 -0 0 0 0 0 -0 0 0 0 0 0 0 0 0 -0 -0 -0 -0 0 0 0 0 0 0 0 0 0 0 0 0 0 0 0 0 0 0 0 0 0 0 0
0 0 0 0 0 0 0 0 0 0 0 0 0 0 0 0 0 0 0 0 0 0 -0 -0 -0 -0 0 0 0 0 0 0 0 0 0 0 0 0 0 0 0 0 0 0 0 0 0 0 0
0 0 0 0 0 0 0 0 0 0 0 0 0 0 -0 0 0 0 0 -0 -0 -0 -0 -0 -0 -0 -0 0 0 0 0 0 0 0 0 0 0 0 0 0 0 0 0 0 0 0 0 0 0
0 0 0 0 0 0 0 0 0 0 0 0 0 0 0 0 0 0 -0 -0 -0 -0 -0 -0 -0 0 0 -0 -0 0 0 0 0 0 0 0 0 0 0 0 0 0 0 0 0 0 0 0 0
0 0 0 0 0 0 0 0 0 0 0 0 0 0 0 0 0 0 0 0 0 0 0 0 0 0 0 0 0 0 0 0 0 0 0 0 0 0 0 0 0 0 0 0 0 0 0 0 0
0 0 0 0 0 0 0 0 0 0 0 0 0 0 0 0 0 0 0 0 0 0 0 0 0 0 0 0 -0 0 0 0 0 0 0 0 0 0 0 0 0 0 0 0 0 0 0 0 0
0 0 0 0 0 0 0 0 0 0 0 0 0 0 0 0 0 0 0 0 0 0 0 0 0 0 0 0 -0 -0 0 0 0 0 0 0 0 0 0 0 0 0 0 0 0 0 0 0 0
Wind_Speed_500mb
10 8 7 5 6 7 6 9 4 5 4 5 16 10 9 5 9 5 3 13 19 44 45 46 42 39 37 33 29 26 24 21 17 21 18 18 24 20 15 15 16 15 15 13 12 12 13 14 14
8 6 4 4 7 4 8 6 7 8 4 5 11 7 5 10 22 15 8 17 23 36 44 45 43 39 36 34 32 27 28 25 24 24 23 18 18 16 16 17 18 17 17 17 16 15 14 14 13
4 2 0 7 5 6 7 8 6 4 7 8 6 9 7 7 9 9 10 20 23 33 41 42 42 41 38 34 34 36 35 33 31 26 24 20 17 17 17 18 18 19 18 17 13 13 12 11 8
1 3 10 6 8 12 11 6 7 12 5 14 6 9 12 19 9 12 14 21 25 33 40 42 42 44 46 45 42 37 35 38 33 32 26 22 20 20 20 22 21 20 16 13 12 9 5 5 4
5 5 6 4 8 9 10 17 11 5 4 5 9 7 11 21 20 25 17 21 28 32 40 44 44 44 43 49 46 39 37 34 32 30 25 25 23 23 22 23 20 18 16 12 10 6 3 2 3
6 6 6 5 8 10 13 13 6 6 8 4 8 9 13 21 22 21 23 20 29 30 36 43 46 46 47 47 41 39 35 32 32 28 27 26 24 22 21 20 19 17 14 10 8 5 3 3 3
10 7 7 5 8 11 7 6 6 6 6 13 9 5 9 18 19 14 19 24 29 33 37 41 46 48 48 50 43 40 37 36 35 32 30 27 25 23 22 19 17 14 12 10 7 5 5 5 5
7 9 6 8 5 11 5 5 5 7 7 7 11 10 9 11 16 17 19 27 33 37 40 42 46 49 48 48 46 43 39 40 36 34 33 30 28 25 24 22 19 16 14 10 8 6 6 6 6
7 6 4 9 11 9 7 5 5 6 15 15 18 31 37 37 35 31 29 32 37 41 44 46 49 52 51 49 47 45 44 43 39 38 35 33 31 29 27 26 24 21 18 15 13 11 10 9 8
8 7 16 13 11 10 10 12 14 8 19 28 41 46 45 44 45 43 43 41 43 45 47 49 52 55 56 54 53 51 50 48 46 43 38 36 35 33 33 31 29 26 23 20 16 13 11 9 8
11 12 10 15 30 23 14 9 13 9 15 45 43 43 42 51 48 49 50 50 49 44 50 52 55 57 60 60 59 57 55 54 51 47 43 41 40 39 36 34 32 30 27 22 18 14 12 9 7
6 29 22 11 14 12 11 14 11 28 67 71 65 60 59 66 64 62 61 58 55 54 51 57 59 61 63 65 65 62 61 59 58 53 49 48 47 44 41 40 38 34 28 24 19 15 12 9 8
10 12 28 42 38 44 41 49 19 46 85 76 65 61 61 60 58 57 57 59 60 66 61 62 63 65 68 69 68 69 68 67 64 59 56 53 52 48 46 45 42 38 33 28 23 19 15 12 10
7 15 27 29 44 38 20 37 9 50 59 55 51 54 50 49 48 50 56 56 59 60 65 66 69 69 70 72 73 72 72 71 70 67 63 59 56 53 52 50 47 43 38 32 28 23 19 15 12
8 14 16 20 20 16 18 18 20 58 41 55 42 45 49 51 50 50 46 52 57 57 56 62 68 74 77 76 76 78 77 76 78 75 71 68 64 62 59 57 53 48 43 38 33 28 23 19 15
6 2 8 5 14 5 19 23 28 47 19 43 65 72 77 84 78 72 68 65 58 55 55 58 65 75 80 83 83 83 84 82 83 83 80 77 74 71 68 65 60 55 50 44 39 34 28 23 18
5 9 12 21 21 6 14 13 20 26 38 57 79 96 95 95 87 77 70 66 67 69 69 67 65 72 79 86 90 91 92 90 91 91 89 86 82 80 77 73 67 63 57 51 46 40 34 28 24
14 10 11 12 13 9 9 27 25 77 51 77 81 93 79 88 84 74 61 52 48 51 57 65 70 71 76 86 93 99 101 102 100 97 95 93 91 89 85 79 75 72 67 62 57 48 43 36 31
4 8 13 17 28 14 33 35 29 55 53 66 78 75 71 75 70 59 54 50 45 44 48 54 62 70 79 87 95 107 110 110 108 107 103 101 99 95 92 87 84 81 76 69 61 56 51 44 37
11 10 21 13 21 8 23 47 41 40 48 69 59 66 67 65 69 62 56 49 41 30 29 34 44 59 71 85 95 107 106 116 115 113 113 107 105 101 98 94 92 87 81 77 72 65 59 50 43
10 11 18 19 16 10 17 19 10 9 24 42 49 62 52 53 59 50 49 48 42 37 33 35 37 45 56 70 86 102 110 112 118 122 121 117 113 108 105 100 95 90 86 82 76 71 63 57 52
9 17 21 13 7 7 10 24 7 12 14 11 55 32 34 38 45 47 48 41 47 55 59 49 43 48 56 65 80 95 109 119 119 115 120 124 120 116 112 106 100 95 91 88 82 73 69 63 60
18 3 5 5 5 8 5 7 3 7 14 23 10 17 17 41 70 57 34 51 57 63 73 75 64 56 56 65 75 85 97 108 118 113 118 122 122 121 117 113 107 104 100 92 86 82 79 73 66
7 6 10 7 3 9 15 14 33 9 11 6 5 26 54 54 50 18 35 67 75 79 74 72 70 58 56 62 66 79 86 98 110 111 110 110 116 123 123 116 113 109 103 99 92 87 81 77 71
7 9 8 7 2 22 8 8 32 8 16 17 20 32 42 40 24 5 48 66 68 62 65 57 60 63 62 61 62 71 81 90 100 107 104 106 108 119 128 121 119 116 109 103 97 93 87 84 78
16 18 10 12 32 40 13 23 41 16 5 23 28 39 13 24 18 53 66 68 55 45 46 49 56 59 59 58 56 66 72 78 87 96 100 105 103 106 116 121 120 116 112 108 102 97 93 88 82
7 10 8 11 4 7 24 33 50 16 10 13 9 19 25 40 60 55 58 60 57 57 57 53 52 50 53 54 52 51 57 68 81 87 93 97 95 99 105 112 120 116 114 110 105 102 98 92 85
11 3 4 3 6 31 27 34 38 41 16 16 21 46 55 49 55 51 47 51 49 51 50 44 46 49 49 48 49 52 51 56 69 75 83 90 88 92 97 96 111 115 114 111 107 104 100 94 91
8 9 4 7 18 32 41 34 35 23 19 30 27 37 48 55 56 57 57 51 52 52 60 63 57 53 50 49 47 45 47 53 52 60 72 80 82 88 93 89 94 105 110 112 109 108 104 99 95
18 25 27 26 26 24 34 41 19 20 25 35 31 34 33 40 46 51 53 59 60 60 59 63 66 66 64 60 53 51 46 47 52 53 59 65 74 84 87 88 94 94 95 108 112 112 108 104 102
Wind_Direction_500mb
251 269 305 333 48 56 276 262 308 260 246 200 148 166 210 240 172 227 285 172 175 190 192 193 194 192 192 192 196 197 201 198 188 199 203 202 219 224 229 241 249 256 268 282 295 304 311 308 312
261 275 312 70 87 36 271 267 248 236 306 181 197 215 252 263 244 282 257 189 175 187 196 195 195 190 190 191 193 191 193 194 205 208 210 211 236 243 249 254 261 270 279 290 299 304 305 311 311
260 243 341 87 103 191 231 222 253 286 247 194 210 233 260 247 256 230 240 198 189 189 195 198 198 190 186 190 192 190 198 192 199 203 218 237 238 247 252 255 259 265 272 280 289 296 303 304 315
149 106 61 92 226 249 222 237 230 297 243 214 227 271 254 255 268 235 252 213 205 194 195 200 201 197 190 191 193 193 197 204 215 224 231 233 234 237 249 259 259 260 266 277 287 289 302 309 345
130 79 55 16 256 263 250 270 266 256 267 196 197 263 255 268 267 260 260 227 215 203 201 203 204 205 200 203 211 213 218 223 224 230 229 231 236 241 238 239 242 251 255 245 241 243 259 308 348
89 79 58 270 264 267 276 261 239 233 252 212 208 252 265 285 282 272 249 238 217 217 213 210 208 210 209 217 218 220 224 225 228 232 235 240 241 237 233 232 232 230 232 227 228 236 255 282 315
120 93 204 237 263 300 244 311 199 208 231 240 217 209 262 289 295 272 243 228 219 220 218 218 216 215 214 221 223 223 222 224 227 228 233 235 236 235 237 237 234 226 215 215 216 228 274 303 322
127 95 159 237 222 269 269 277 253 217 268 238 210 227 256 289 295 280 252 232 225 226 223 222 221 222 222 222 223 224 225 229 228 226 225 223 226 229 231 229 225 217 212 213 225 240 265 292 310
141 69 219 244 175 241 235 247 213 247 257 254 234 251 276 282 281 272 252 243 237 235 230 226 225 224 226 226 227 227 228 231 229 226 225 223 225 223 223 220 215 213 213 217 228 248 267 284 299
145 144 221 210 199 227 251 242 267 245 250 259 259 266 277 284 276 273 267 261 252 244 240 235 230 227 227 228 228 228 228 229 228 227 227 224 223 221 219 215 212 212 216 224 234 249 260 269 278
182 208 211 248 239 259 266 262 238 223 265 259 262 288 283 289 278 272 270 264 263 258 247 242 237 232 230 230 231 231 231 230 229 229 227 225 224 223 222 218 216 216 220 224 228 234 245 258 277
229 246 231 257 249 254 250 271 221 236 266 288 291 290 280 283 280 279 276 270 265 254 249 243 240 237 235 231 232 234 234 233 233 230 228 227 227 226 223 220 218 220 222 227 229 234 242 256 277
217 246 256 260 267 267 275 267 246 256 282 290 292 288 284 283 281 278 279 272 262 255 250 245 242 241 239 236 236 234 233 233 235 234 231 230 229 227 226 223 222 223 223 225 227 232 238 247 262
242 265 274 279 266 257 235 270 182 269 288 294 293 295 294 289 287 281 271 270 264 263 256 250 246 244 242 241 240 239 238 236 235 234 234 233 233 230 228 226 224 224 224 225 227 230 235 243 259
288 311 311 235 265 223 218 284 225 275 286 289 295 298 296 295 294 289 294 282 273 268 263 256 251 247 244 242 242 241 240 238 237 236 233 232 232 231 229 228 226 226 225 225 227 228 231 236 247
331 20 307 257 153 244 169 256 266 288 293 296 294 290 289 288 286 281 281 285 286 279 265 260 251 248 247 244 242 240 240 238 238 236 235 233 231 229 228 227 226 226 225 225 225 228 230 233 243
324 248 228 315 209 128 187 253 267 290 300 288 284 286 287 290 289 284 286 284 282 281 277 270 260 252 247 246 244 242 241 239 238 236 233 232 231 229 228 226 224 225 225 225 226 227 228 229 235
234 228 245 246 286 192 246 255 277 282 280 276 281 281 280 285 288 299 300 299 297 292 282 273 267 260 251 245 244 243 241 239 237 237 236 234 230 229 227 225 223 224 223 223 224 224 224 224 226
195 232 254 263 273 309 274 269 259 266 270 264 270 279 283 288 304 310 313 313 313 310 302 291 278 266 254 247 242 240 240 240 237 237 234 234 233 229 227 225 223 222 222 224 223 221 220 219 220
237 271 271 276 270 181 279 291 273 249 255 261 267 277 285 301 312 321 325 327 326 322 322 308 292 276 265 256 250 245 244 241 239 238 235 232 232 231 228 227 225 224 222 220 220 220 219 218 218
193 224 256 250 329 270 310 274 254 272 235 267 273 271 284 302 318 339 339 342 335 334 328 311 298 287 276 264 254 248 243 240 238 236 235 233 230 230 229 228 228 227 225 224 224 222 222 221 220
264 234 251 277 4 269 32 297 178 221 255 273 267 285 284 329 335 336 353 12 14 10 0 336 300 285 280 269 257 252 248 243 243 241 238 234 229 228 228 227 226 227 228 226 225 223 223 222 223
229 104 177 170 201 349 333 296 355 139 253 263 313 308 337 335 341 335 10 11 5 357 350 345 343 312 285 272 264 258 251 249 248 245 242 237 231 228 227 227 225 225 225 227 226 224 221 223 224
122 81 48 62 58 277 192 191 305 152 201 268 297 335 331 321 306 339 1 355 352 347 346 341 337 334 310 291 272 261 257 252 250 248 245 241 235 229 226 226 226 226 225 224 225 225 226 226 226
103 65 306 312 56 260 178 237 245 178 248 313 300 297 288 307 314 345 349 350 348 352 345 347 349 350 337 311 287 270 259 253 252 252 251 248 242 232 228 225 225 225 224 224 223 224 226 226 226
183 177 202 257 272 276 133 253 263 194 229 312 311 301 307 345 338 340 355 357 356 352 339 336 344 344 350 345 317 288 274 262 257 256 254 251 248 245 235 230 227 226 225 224 223 223 225 226 227
158 182 240 276 338 297 265 268 287 237 353 25 13 23 334 349 0 355 343 345 349 355 356 350 341 344 346 344 338 318 291 275 267 261 259 256 252 247 240 235 231 228 226 225 223 224 224 224 227
176 284 273 24 211 252 262 269 267 300 332 350 8 14 12 13 10 4 353 344 347 352 356 352 349 345 342 339 335 328 314 298 279 270 266 262 257 249 244 238 235 231 229 226 225 226 225 225 226
261 255 230 288 235 256 265 259 276 312 24 43 47 20 4 358 5 7 3 359 356 356 357 358 352 348 343 339 328 320 315 302 292 285 274 267 262 254 247 240 238 235 231 229 227 227 227 226 226
198 228 234 245 254 241 249 248 323 9 355 350 8 9 27 11 2 358 354 351 350 350 345 351 353 352 349 344 335 324 309 298 293 288 285 276 266 258 252 245 239 235 233 232 230 229 228 227 228
Wind_Speed_850mb
10 8 7 5 6 7 6 9 4 5 4 5 16 10 9 5 9 5 3 13 19 44 45 46 42 39 37 33 29 26 24 21 17 21 18 18 24 20 15 15 16 15 15 13 12 12 13 14 14
8 6 4 4 7 4 8 6 7 8 4 5 11 7 5 10 22 15 8 17 23 36 44 45 43 39 36 34 32 27 28 25 24 24 23 18 18 16 16 17 18 17 17 17 16 15 14 14 13
4 2 0 7 5 6 7 8 6 4 7 8 6 9 7 7 9 9 10 20 23 33 41 42 42 41 38 34 34 36 35 33 31 26 24 20 17 17 17 18 18 19 18 17 13 13 12 11 8
1 3 10 6 8 12 11 6 7 12 5 14 6 9 12 19 9 12 14 21 25 33 40 42 42 44 46 45 42 37 35 38 33 32 26 22 20 20 20 22 21 20 16 13 12 9 5 5 4
5 5 6 4 8 9 10 17 11 5 4 5 9 7 11 21 20 25 17 21 28 32 40 44 44 44 43 49 46 39 37 34 32 30 25 25 23 23 22 23 20 18 16 12 10 6 3 2 3
6 6 6 5 8 10 13 13 6 6 8 4 8 9 13 21 22 21 23 20 29 30 36 43 46 46 47 47 41 39 35 32 32 28 27 26 24 22 21 20 19 17 14 10 8 5 3 3 3
10 7 7 5 8 11 7 6 6 6 6 13 9 5 9 18 19 14 19 24 29 33 37 41 46 48 48 50 43 40 37 36 35 32 30 27 25 23 22 19 17 14 12 10 7 5 5 5 5
7 9 6 8 5 11 5 5 5 7 7 7 11 10 9 11 16 17 19 27 33 37 40 42 46 49 48 48 46 43 39 40 36 34 33 30 28 25 24 22 19 16 14 10 8 6 6 6 6
7 6 4 9 11 9 7 5 5 6 15 15 18 31 37 37 35 31 29 32 37 41 44 46 49 52 51 49 47 45 44 43 39 38 35 33 31 29 27 26 24 21 18 15 13 11 10 9 8
8 7 16 13 11 10 10 12 14 8 19 28 41 46 45 44 45 43 43 41 43 45 47 49 52 55 56 54 53 51 50 48 46 43 38 36 35 33 33 31 29 26 23 20 16 13 11 9 8
11 12 10 15 30 23 14 9 13 9 15 45 43 43 42 51 48 49 50 50 49 44 50 52 55 57 60 60 59 57 55 54 51 47 43 41 40 39 36 34 32 30 27 22 18 14 12 9 7
6 29 22 11 14 12 11 14 11 28 67 71 65 60 59 66 64 62 61 58 55 54 51 57 59 61 63 65 65 62 61 59 58 53 49 48 47 44 41 40 38 34 28 24 19 15 12 9 8
10 12 28 42 38 44 41 49 19 46 85 76 65 61 61 60 58 57 57 59 60 66 61 62 63 65 68 69 68 69 68 67 64 59 56 53 52 48 46 45 42 38 33 28 23 19 15 12 10
7 15 27 29 44 38 20 37 9 50 59 55 51 54 50 49 48 50 56 56 59 60 65 66 69 69 70 72 73 72 72 71 70 67 63 59 56 53 52 50 47 43 38 32 28 23 19 15 12
8 14 16 20 20 16 18 18 20 58 41 55 42 45 49 51 50 50 46 52 57 57 56 62 68 74 77 76 76 78 77 76 78 75 71 68 64 62 59 57 53 48 43 38 33 28 23 19 15
6 2 8 5 14 5 19 23 28 47 19 43 65 72 77 84 78 72 68 65 58 55 55 58 65 75 80 83 83 83 84 82 83 83 80 77 74 71 68 65 60 55 50 44 39 34 28 23 18
5 9 12 21 21 6 14 13 20 26 38 57 79 96 95 95 87 77 70 66 67 69 69 67 65 72 79 86 90 91 92 90 91 91 89 86 82 80 77 73 67 63 57 51 46 40 34 28 24
14 10 11 12 13 9 9 27 25 77 51 77 81 93 79 88 84 74 61 52 48 51 57 65 70 71 76 86 93 99 101 102 100 97 95 93 91 89 85 79 75 72 67 62 57 48 43 36 31
4 8 13 17 28 14 33 35 29 55 53 66 78 75 71 75 70 59 54 50 45 44 48 54 62 70 79 87 95 107 110 110 108 107 103 101 99 95 92 87 84 81 76 69 61 56 51 44 37
11 10 21 13 21 8 23 47 41 40 48 69 59 66 67 65 69 62 56 49 41 30 29 34 44 59 71 85 95 107 106 116 115 113 113 107 105 101 98 94 92 87 81 77 72 65 59 50 43
10 11 18 19 16 10 17 19 10 9 24 42 49 62 52 53 59 50 49 48 42 37 33 35 37 45 56 70 86 102 110 112 118 122 121 117 113 108 105 100 95 90 86 82 76 71 63 57 52
9 17 21 13 7 7 10 24 7 12 14 11 55 32 34 38 45 47 48 41 47 55 59 49 43 48 56 65 80 95 109 119 119 115 120 124 120 116 112 106 100 95 91 88 82 73 69 63 60
18 3 5 5 5 8 5 7 3 7 14 23 10 17 17 41 70 57 34 51 57 63 73 75 64 56 56 65 75 85 97 108 118 113 118 122 122 121 117 113 107 104 100 92 86 82 79 73 66
7 6 10 7 3 9 15 14 33 9 11 6 5 26 54 54 50 18 35 67 75 79 74 72 70 58 56 62 66 79 86 98 110 111 110 110 116 123 123 116 113 109 103 99 92 87 81 77 71
7 9 8 7 2 22 8 8 32 8 16 17 20 32 42 40 24 5 48 66 68 62 65 57 60 63 62 61 62 71 81 90 100 107 104 106 108 119 128 121 119 116 109 103 97 93 87 84 78
16 18 10 12 32 40 13 23 41 16 5 23 28 39 13 24 18 53 66 68 55 45 46 49 56 59 59 58 56 66 72 78 87 96 100 105 103 106 116 121 120 116 112 108 102 97 93 88 82
7 10 8 11 4 7 24 33 50 16 10 13 9 19 25 40 60 55 58 60 57 57 57 53 52 50 53 54 52 51 57 68 81 87 93 97 95 99 105 112 120 116 114 110 105 102 98 92 85
11 3 4 3 6 31 27 34 38 41 16 16 21 46 55 49 55 51 47 51 49 51 50 44 46 49 49 48 49 52 51 56 69 75 83 90 88 92 97 96 111 115 114 111 107 104 100 94 91
8 9 4 7 18 32 41 34 35 23 19 30 27 37 48 55 56 57 57 51 52 52 60 63 57 53 50 49 47 45 47 53 52 60 72 80 82 88 93 89 94 105 110 112 109 108 104 99 95
18 25 27 26 26 24 34 41 19 20 25 35 31 34 33 40 46 51 53 59 60 60 59 63 66 66 64 60 53 51 46 47 52 53 59 65 74 84 87 88 94 94 95 108 112 112 108 104 102
Wind_Direction_850mb
251 269 305 333 48 56 276 262 308 260 246 200 148 166 210 240 172 227 285 172 175 190 192 193 194 192 192 192 196 197 201 198 188 199 203 202 219 224 229 241 249 256 268 282 295 304 311 308 312
261 275 312 70 87 36 271 267 248 236 306 181 197 215 252 263 244 282 257 189 175 187 196 195 195 190 190 191 193 191 193 194 205 208 210 211 236 243 249 254 261 270 279 290 299 304 305 311 311
260 243 341 87 103 191 231 222 253 286 247 194 210 233 260 247 256 230 240 198 189 189 195 198 198 190 186 190 192 190 198 192 199 203 218 237 238 247 252 255 259 265 272 280 289 296 303 304 315
149 106 61 92 226 249 222 237 230 297 243 214 227 271 254 255 268 235 252 213 205 194 195 200 201 197 190 191 193 193 197 204 215 224 231 233 234 237 249 259 259 260 266 277 287 289 302 309 345
130 79 55 16 256 263 250 270 266 256 267 196 197 263 255 268 267 260 260 227 215 203 201 203 204 205 200 203 211 213 218 223 224 230 229 231 236 241 238 239 242 251 255 245 241 243 259 308 348
89 79 58 270 264 267 276 261 239 233 252 212 208 252 265 285 282 272 249 238 217 217 213 210 208 210 209 217 218 220 224 225 228 232 235 240 241 237 233 232 232 230 232 227 228 236 255 282 315
120 93 204 237 263 300 244 311 199 208 231 240 217 209 262 289 295 272 243 228 219 220 218 218 216 215 214 221 223 223 222 224 227 228 233 235 236 235 237 237 234 226 215 215 216 228 274 303 322
127 95 159 237 222 269 269 277 253 217 268 238 210 227 256 289 295 280 252 232 225 226 223 222 221 222 222 222 223 224 225 229 228 226 225 223 226 229 231 229 225 217 212 213 225 240 265 292 310
141 69 219 244 175 241 235 247 213 247 257 254 234 251 276 282 281 272 252 243 237 235 230 226 225 224 226 226 227 227 228 231 229 226 225 223 225 223 223 220 215 213 213 217 228 248 267 284 299
145 144 221 210 199 227 251 242 267 245 250 259 259 266 277 284 276 273 267 261 252 244 240 235 230 227 227 228 228 228 228 229 228 227 227 224 223 221 219 215 212 212 216 224 234 249 260 269 278
182 208 211 248 239 259 266 262 238 223 265 259 262 288 283 289 278 272 270 264 263 258 247 242 237 232 230 230 231 231 231 230 229 229 227 225 224 223 222 218 216 216 220 224 228 234 245 258 277
229 246 231 257 249 254 250 271 221 236 266 288 291 290 280 283 280 279 276 270 265 254 249 243 240 237 235 231 232 234 234 233 233 230 228 227 227 226 223 220 218 220 222 227 229 234 242 256 277
217 246 256 260 267 267 275 267 246 256 282 290 292 288 284 283 281 278 279 272 262 255 250 245 242 241 239 236 236 234 233 233 235 234 231 230 229 227 226 223 222 223 223 225 227 232 238 247 262
242 265 274 279 266 257 235 270 182 269 288 294 293 295 294 289 287 281 271 270 264 263 256 250 246 244 242 241 240 239 238 236 235 234 234 233 233 230 228 226 224 224 224 225 227 230 235 243 259
288 311 311 235 265 223 218 284 225 275 286 289 295 298 296 295 294 289 294 282 273 268 263 256 251 247 244 242 242 241 240 238 237 236 233 232 232 231 229 228 226 226 225 225 227 228 231 236 247
331 20 307 257 153 244 169 256 266 288 293 296 294 290 289 288 286 281 281 285 286 279 265 260 251 248 247 244 242 240 240 238 238 236 235 233 231 229 228 227 226 226 225 225 225 228 230 233 243
324 248 228 315 209 128 187 253 267 290 300 288 284 286 287 290 289 284 286 284 282 281 277 270 260 252 247 246 244 242 241 239 238 236 233 232 231 229 228 226 224 225 225 225 226 227 228 229 235
234 228 245 246 286 192 246 255 277 282 280 276 281 281 280 285 288 299 300 299 297 292 282 273 267 260 251 245 244 243 241 239 237 237 236 234 230 229 227 225 223 224 223 223 224 224 224 224 226
195 232 254 263 273 309 274 269 259 266 270 264 270 279 283 288 304 310 313 313 313 310 302 291 278 266 254 247 242 240 240 240 237 237 234 234 233 229 227 225 223 222 222 224 223 221 220 219 220
237 271 271 276 270 181 279 291 273 249 255 261 267 277 285 301 312 321 325 327 326 322 322 308 292 276 265 256 250 245 244 241 239 238 235 232 232 231 228 227 225 224 222 220 220 220 219 218 218
193 224 256 250 329 270 310 274 254 272 235 267 273 271 284 302 318 339 339 342 335 334 328 311 298 287 276 264 254 248 243 240 238 236 235 233 230 230 229 228 228 227 225 224 224 222 222 221 220
264 234 251 277 4 269 32 297 178 221 255 273 267 285 284 329 335 336 353 12 14 10 0 336 300 285 280 269 257 252 248 243 243 241 238 234 229 228 228 227 226 227 228 226 225 223 223 222 223
229 104 177 170 201 349 333 296 355 139 253 263 313 308 337 335 341 335 10 11 5 357 350 345 343 312 285 272 264 258 251 249 248 245 242 237 231 228 227 227 225 225 225 227 226 224 221 223 224
122 81 48 62 58 277 192 191 305 152 201 268 297 335 331 321 306 339 1 355 352 347 346 341 337 334 310 291 272 261 257 252 250 248 245 241 235 229 226 226 226 226 225 224 225 225 226 226 226
103 65 306 312 56 260 178 237 245 178 248 313 300 297 288 307 314 345 349 350 348 352 345 347 349 350 337 311 287 270 259 253 252 252 251 248 242 232 228 225 225 225 224 224 223 224 226 226 226
183 177 202 257 272 276 133 253 263 194 229 312 311 301 307 345 338 340 355 357 356 352 339 336 344 344 350 345 317 288 274 262 257 256 254 251 248 245 235 230 227 226 225 224 223 223 225 226 227
158 182 240 276 338 297 265 268 287 237 353 25 13 23 334 349 0 355 343 345 349 355 356 350 341 344 346 344 338 318 291 275 267 261 259 256 252 247 240 235 231 228 226 225 223 224 224 224 227
176 284 273 24 211 252 262 269 267 300 332 350 8 14 12 13 10 4 353 344 347 352 356 352 349 345 342 339 335 328 314 298 279 270 266 262 257 249 244 238 235 231 229 226 225 226 225 225 226
261 255 230 288 235 256 265 259 276 312 24 43 47 20 4 358 5 7 3 359 356 356 357 358 352 348 343 339 328 320 315 302 292 285 274 267 262 254 247 240 238 235 231 229 227 227 227 226 226
198 228 234 245 254 241 249 248 323 9 355 350 8 9 27 11 2 358 354 351 350 350 345 351 353 352 349 344 335 324 309 298 293 288 285 276 266 258 252 245 239 235 233 232 230 229 228 227 228